Weather History for Lakeville, MN

Change the Weather History Date:

Monday, April 14, 2014

  Actual Average Record
Temperature  
Mean Temperature 30 °F -  
Max Temperature 37 °F 55 °F 89 °F (2003)
Min Temperature 24 °F 34 °F 18 °F (1962)
Degree Days  
Heating Degree Days 34    
Moisture  
Dew Point 13 °F    
Average Humidity 50    
Maximum Humidity 69    
Minimum Humidity 30    
Precipitation  
Precipitation 0.00 in - - ()
Sea Level Pressure  
Sea Level Pressure 30.01 in    
Wind  
Wind Speed 18 mph (NNW)    
Max Wind Speed 24 mph    
Max Gust Speed 34 mph    
Visibility 10 miles    
Events      
Averages and records for this station are not official NWS values.
T = Trace of Precipitation, MM = Missing Value Source: NWS Daily Summary

Daily Weather History Graph

Daily Weather History Graph

Search for Another Location

Airport:

Trip Planner

Search our weather history database for the weather conditions in past years. The results will help you decide how hot, cold, wet, or windy it might be!

Date:

Astronomy

Apr. 14, 2014 Rise Set
Actual Time 6:30 AM CDT 7:56 PM CDT
Civil Twilight 6:00 AM CDT 8:27 PM CDT
Nautical Twilight 5:23 AM CDT 9:03 PM CDT
Astronomical Twilight 4:44 AM CDT 9:43 PM CDT
Moon 7:35 PM CDT (4/14) 6:04 AM CDT (4/14)
Length of Visible Light 14h 26m
Length of Day
13h 26m
Full, 100% of the Moon is Illuminated
Apr 14
Full
Apr 15
Full
Apr 22
Last Quarter
Apr 29
New
May 6
First Quarter

Hourly Weather History & Observations

Time (CDT) Temp. Windchill Dew Point Humidity Pressure Visibility Wind Dir Wind Speed Gust Speed Precip Events Conditions
12:16 AM 32.0 °F 20.8 °F 23.0 °F 69% 29.89 in 10.0 mi North 17.3 mph 29.9 mph N/A   Scattered Clouds
12:37 AM 30.2 °F 18.9 °F 21.2 °F 69% 29.89 in 10.0 mi North 16.1 mph 32.2 mph N/A   Scattered Clouds
12:57 AM 30.2 °F 16.5 °F 21.2 °F 69% 29.90 in 10.0 mi North 24.2 mph 33.4 mph N/A   Overcast
1:16 AM 30.2 °F 18.1 °F 21.2 °F 69% 29.89 in 10.0 mi NNW 18.4 mph 25.3 mph N/A   Overcast
1:37 AM 30.2 °F 17.1 °F 21.2 °F 69% 29.89 in 10.0 mi NNW 21.9 mph 28.8 mph N/A   Overcast
1:57 AM 30.2 °F 18.5 °F 19.4 °F 64% 29.89 in 10.0 mi NNW 17.3 mph 34.5 mph N/A   Mostly Cloudy
2:16 AM 28.4 °F 15.4 °F 19.4 °F 69% 29.89 in 10.0 mi NNW 19.6 mph 31.1 mph N/A   Mostly Cloudy
2:37 AM 28.4 °F 15.1 °F 19.4 °F 69% 29.90 in 10.0 mi NNW 20.7 mph 27.6 mph N/A   Mostly Cloudy
2:57 AM 28.4 °F 17.0 °F 19.4 °F 69% 29.91 in 10.0 mi NNW 15.0 mph 28.8 mph N/A   Overcast
3:16 AM 28.4 °F 15.4 °F 19.4 °F 69% 29.90 in 10.0 mi NNW 19.6 mph 24.2 mph N/A   Overcast
3:37 AM 28.4 °F 16.2 °F 19.4 °F 69% 29.90 in 10.0 mi NNW 17.3 mph 31.1 mph N/A   Overcast
3:57 AM 28.4 °F 15.8 °F 19.4 °F 69% 29.90 in 10.0 mi North 18.4 mph 24.2 mph N/A   Overcast
4:16 AM 28.4 °F 15.8 °F 19.4 °F 69% 29.91 in 10.0 mi NNW 18.4 mph 27.6 mph N/A   Overcast
4:37 AM 28.4 °F 15.4 °F 17.6 °F 64% 29.91 in 10.0 mi North 19.6 mph 25.3 mph N/A   Overcast
4:56 AM 28.4 °F 17.5 °F 17.6 °F 64% 29.92 in 10.0 mi North 13.8 mph 27.6 mph N/A   Scattered Clouds
5:17 AM 28.4 °F 15.4 °F 17.6 °F 64% 29.93 in 10.0 mi NNW 19.6 mph 23.0 mph N/A   Mostly Cloudy
5:37 AM 26.6 °F 14.3 °F 17.6 °F 69% 29.94 in 10.0 mi NNW 16.1 mph - N/A   Overcast
5:56 AM 26.6 °F 13.8 °F 17.6 °F 69% 29.95 in 10.0 mi NNW 17.3 mph 24.2 mph N/A   Mostly Cloudy
6:17 AM 26.6 °F 15.2 °F 15.8 °F 64% 29.97 in 10.0 mi NNW 13.8 mph 23.0 mph N/A   Mostly Cloudy
6:36 AM 26.6 °F 14.3 °F 15.8 °F 64% 29.98 in 10.0 mi NNW 16.1 mph 24.2 mph N/A   Scattered Clouds
6:56 AM 26.6 °F 15.7 °F 15.8 °F 64% 29.99 in 10.0 mi North 12.7 mph 25.3 mph N/A   Scattered Clouds
7:16 AM 26.6 °F 13.8 °F 15.8 °F 64% 29.99 in 10.0 mi NNW 17.3 mph 26.5 mph N/A   Scattered Clouds
7:36 AM 26.6 °F 13.8 °F 15.8 °F 64% 30.00 in 10.0 mi NNW 17.3 mph 24.2 mph N/A   Mostly Cloudy
7:57 AM 26.6 °F 13.4 °F 15.8 °F 64% 30.01 in 10.0 mi NNW 18.4 mph 27.6 mph N/A   Mostly Cloudy
8:16 AM 26.6 °F 12.7 °F 15.8 °F 64% 30.02 in 10.0 mi NNW 20.7 mph 24.2 mph N/A   Scattered Clouds
8:37 AM 28.4 °F 16.2 °F 15.8 °F 59% 30.03 in 10.0 mi NNW 17.3 mph 27.6 mph N/A   Scattered Clouds
8:57 AM 28.4 °F 15.1 °F 15.8 °F 59% 30.02 in 10.0 mi NNW 20.7 mph 25.3 mph N/A   Clear
9:16 AM 28.4 °F 15.1 °F 14.0 °F 55% 30.03 in 10.0 mi NNW 20.7 mph 26.5 mph N/A   Clear
9:37 AM 28.4 °F 16.6 °F 12.2 °F 51% 30.03 in 10.0 mi North 16.1 mph 26.5 mph N/A   Clear
9:56 AM 28.4 °F 15.8 °F 12.2 °F 51% 30.03 in 10.0 mi NNW 18.4 mph 28.8 mph N/A   Scattered Clouds
10:16 AM 30.2 °F 18.1 °F 12.2 °F 47% 30.03 in 10.0 mi NNW 18.4 mph 25.3 mph N/A   Clear
10:37 AM 30.2 °F 16.8 °F 10.4 °F 44% 30.03 in 10.0 mi NW 23.0 mph 27.6 mph N/A   Clear
10:56 AM 32.0 °F 20.5 °F 10.4 °F 41% 30.04 in 10.0 mi NNW 18.4 mph 26.5 mph N/A   Clear
11:17 AM 30.2 °F 18.5 °F 8.6 °F 40% 30.05 in 10.0 mi North 17.3 mph 28.8 mph N/A   Clear
11:37 AM 30.2 °F 18.9 °F 8.6 °F 40% 30.05 in 10.0 mi NNW 16.1 mph 23.0 mph N/A   Clear
11:56 AM 32.0 °F 21.2 °F 8.6 °F 38% 30.05 in 10.0 mi NNW 16.1 mph 24.2 mph N/A   Clear
12:17 PM 33.8 °F 21.9 °F 8.6 °F 35% 30.05 in 10.0 mi NNW 21.9 mph 31.1 mph N/A   Clear
12:37 PM 33.8 °F 23.2 °F 6.8 °F 32% 30.05 in 10.0 mi NNW 17.3 mph 23.0 mph N/A   Clear
12:56 PM 33.8 °F 23.2 °F 8.6 °F 35% 30.05 in 10.0 mi NNW 17.3 mph 20.7 mph N/A   Clear
1:17 PM 33.8 °F 22.8 °F 10.4 °F 38% 30.04 in 10.0 mi NW 18.4 mph 25.3 mph N/A   Scattered Clouds
1:36 PM 35.6 °F 27.1 °F 10.4 °F 35% 30.05 in 10.0 mi NNW 12.7 mph 23.0 mph N/A   Scattered Clouds
1:56 PM 35.6 °F 24.5 °F 10.4 °F 35% 30.05 in 10.0 mi NNW 20.7 mph 25.3 mph N/A   Mostly Cloudy
2:17 PM 33.8 °F 22.8 °F 8.6 °F 35% 30.04 in 10.0 mi NNW 18.4 mph 27.6 mph N/A   Mostly Cloudy
2:36 PM 35.6 °F 26.2 °F 10.4 °F 35% 30.04 in 10.0 mi NNW 15.0 mph 24.2 mph N/A   Mostly Cloudy
2:57 PM 37.4 °F 26.6 °F 8.6 °F 30% 30.03 in 10.0 mi NW 21.9 mph 32.2 mph N/A   Mostly Cloudy
3:17 PM 35.6 °F 25.5 °F 6.8 °F 30% 30.03 in 10.0 mi NNW 17.3 mph 32.2 mph N/A   Mostly Cloudy
3:36 PM 35.6 °F 25.5 °F 8.6 °F 33% 30.03 in 10.0 mi NW 17.3 mph 26.5 mph N/A   Scattered Clouds
3:57 PM 37.4 °F 27.2 °F 8.6 °F 30% 30.02 in 10.0 mi NW 19.6 mph 25.3 mph N/A   Mostly Cloudy
4:17 PM 33.8 °F 23.5 °F 6.8 °F 32% 30.03 in 10.0 mi North 16.1 mph 26.5 mph N/A   Mostly Cloudy
4:36 PM 33.8 °F 22.5 °F 6.8 °F 32% 30.03 in 10.0 mi NNW 19.6 mph 24.2 mph N/A   Scattered Clouds
4:57 PM 35.6 °F 25.2 °F 6.8 °F 30% 30.02 in 10.0 mi NW 18.4 mph 24.2 mph N/A   Mostly Cloudy
5:17 PM 33.8 °F 23.2 °F 6.8 °F 32% 30.03 in 10.0 mi NW 17.3 mph 23.0 mph N/A   Scattered Clouds
5:36 PM 33.8 °F 22.5 °F 8.6 °F 35% 30.03 in 10.0 mi NW 19.6 mph 27.6 mph N/A   Clear
5:57 PM 32.0 °F 20.1 °F 6.8 °F 35% 30.04 in 10.0 mi NW 19.6 mph - N/A   Clear
6:16 PM 32.0 °F 21.2 °F 6.8 °F 35% 30.05 in 10.0 mi NW 16.1 mph 24.2 mph N/A   Scattered Clouds
6:36 PM 30.2 °F 17.8 °F 6.8 °F 37% 30.05 in 10.0 mi NW 19.6 mph 23.0 mph N/A   Scattered Clouds
6:57 PM 30.2 °F 18.9 °F 6.8 °F 37% 30.05 in 10.0 mi NW 16.1 mph 21.9 mph N/A   Scattered Clouds
7:16 PM 30.2 °F 18.9 °F 8.6 °F 40% 30.06 in 10.0 mi NW 16.1 mph 23.0 mph N/A   Mostly Cloudy
7:37 PM 30.2 °F 19.3 °F 8.6 °F 40% 30.06 in 10.0 mi NW 15.0 mph - N/A   Mostly Cloudy
7:57 PM 28.4 °F 17.0 °F 8.6 °F 43% 30.07 in 10.0 mi NW 15.0 mph - N/A   Mostly Cloudy
8:16 PM 28.4 °F 19.1 °F 8.6 °F 43% 30.08 in 10.0 mi NW 10.4 mph - N/A   Scattered Clouds
8:37 PM 28.4 °F 16.2 °F 8.6 °F 43% 30.08 in 10.0 mi NNW 17.3 mph - N/A   Clear
8:56 PM 28.4 °F 16.6 °F 8.6 °F 43% 30.09 in 10.0 mi NW 16.1 mph - N/A   Clear
9:17 PM 26.6 °F 15.7 °F 8.6 °F 47% 30.09 in 10.0 mi NW 12.7 mph 17.3 mph N/A   Clear
9:36 PM 26.6 °F 16.2 °F 8.6 °F 47% 30.09 in 10.0 mi NW 11.5 mph - N/A   Clear
9:56 PM 26.6 °F 14.3 °F 8.6 °F 47% 30.09 in 10.0 mi NW 16.1 mph 19.6 mph N/A   Clear
10:17 PM 26.6 °F 15.7 °F 10.4 °F 51% 30.09 in 10.0 mi NW 12.7 mph 16.1 mph N/A   Clear
10:36 PM 26.6 °F 16.8 °F 10.4 °F 51% 30.10 in 10.0 mi NW 10.4 mph - N/A   Clear
10:57 PM 24.8 °F 14.0 °F 10.4 °F 54% 30.10 in 10.0 mi NW 11.5 mph - N/A   Clear
11:17 PM 24.8 °F 13.4 °F 12.2 °F 59% 30.10 in 10.0 mi NW 12.7 mph - N/A   Clear
11:36 PM 24.8 °F 13.4 °F 12.2 °F 59% 30.10 in 10.0 mi NW 12.7 mph - N/A   Clear
11:57 PM 24.8 °F 14.0 °F 12.2 °F 59% 30.10 in 10.0 mi NW 11.5 mph - N/A   Clear